CAPE
645 559 945 776 774 1229 1535 1417 2112 2240 2290 2151 1996 2134 1898 1974 1968 2052 2119 2106 1918 1247 981 720 786 580 605 574 146 310 230 257 412 399 243 139 326 325 488 510 418 222 311 450 760 1052 1152 918 577 476 888 1021 1037 1161 1085 1102 1077 1269 1279 1023 695 483 565 887 669 615 914 765 745 1138 1487 1052 73 392 946 999 866 970 649 673 762 835 745 660 545
365 707 1006 974 668 1116 1519 1898 1899 2209 2299 2155 2122 2321 2298 2235 2029 2251 1843 1767 1764 1410 1364 1097 730 247 267 363 220 101 8 159 199 252 288 308 406 337 445 194 150 375 381 284 108 337 923 752 799 785 1204 1222 1060 836 730 829 1001 1116 1145 870 869 664 452 471 539 608 670 533 568 650 1047 1460 946 504 797 603 1919 829 946 771 625 615 368 666 670
370 381 608 650 1003 1258 1510 1658 1386 2088 2606 2301 2324 2600 2539 2484 2388 2268 1744 1691 1603 1638 1151 989 604 801 921 455 659 163 144 322 162 189 72 42 178 36 181 509 429 113 3 0 216 216 358 579 717 967 1103 1368 1214 1028 879 795 897 1081 890 805 706 630 541 422 465 524 420 671 736 663 588 944 1004 1418 1463 1536 1248 754 1353 1005 571 419 432 528 943
543 406 506 710 783 1112 1332 1227 1351 1704 2568 2594 2556 2558 2484 2499 2437 2157 1855 1524 1455 1406 1184 1076 964 726 765 685 646 510 170 187 223 202 51 19 1 107 228 366 247 192 109 6 0 20 224 266 657 547 877 1416 1259 1146 1097 749 806 806 739 691 686 649 563 512 408 530 484 475 484 487 572 601 478 726 752 1017 639 784 1162 1019 918 775 650 587 705
628 480 575 638 1056 1091 992 1221 1474 1669 2388 2482 2640 2421 2374 2561 2460 2190 1671 1499 1269 1310 1090 828 843 882 846 537 103 103 181 168 63 126 98 78 189 310 379 353 182 112 66 25 4 36 136 24 296 521 579 590 1128 1028 968 840 591 635 789 632 604 469 548 574 464 587 585 660 892 596 408 548 525 621 806 1237 1158 1089 885 928 828 880 749 1009 875
932 894 759 566 957 952 936 1163 1339 1380 2196 2424 2695 2666 2473 2344 2362 1954 1495 1350 1207 1304 874 787 814 702 752 444 238 180 249 400 249 13 176 168 16 358 33 65 134 240 0 0 12 12 12 2 71 130 94 558 66 232 433 670 532 653 486 448 527 410 603 597 656 475 462 513 509 930 575 628 596 900 931 494 1266 1036 1016 1103 1045 982 934 807 1158
816 1080 773 693 1014 732 857 1030 1118 981 1285 2488 2697 2776 2478 2342 2352 1709 1393 1348 1153 1243 801 562 659 471 380 205 143 287 378 637 399 468 95 64 357 124 136 171 19 103 45 0 0 0 0 4 13 35 54 0 0 280 172 42 24 135 559 516 424 239 441 473 458 357 401 510 520 648 701 940 1001 846 718 578 668 1004 1451 1187 1315 1213 1162 1185 1019
832 930 1122 1371 1142 1348 1554 957 618 927 971 2244 2634 2755 2406 2320 2360 1653 1406 1384 1139 1309 654 424 432 302 248 137 233 320 467 180 449 503 448 175 251 143 45 336 151 151 182 21 5 15 58 32 14 4 40 0 2 0 0 0 10 3 86 502 472 503 404 225 264 404 309 332 417 713 877 841 786 923 772 924 562 412 731 1309 935 905 715 963 1180
772 1021 1460 1397 1168 1207 1061 895 759 752 1225 2063 2681 2723 2476 2311 2417 1760 1531 1441 1256 1287 511 467 466 247 345 458 332 441 232 258 96 14 243 250 102 194 290 42 226 136 3 1 0 0 0 0 0 0 0 0 0 0 0 0 0 0 3 13 66 97 326 272 30 116 321 179 167 286 483 781 724 832 690 710 728 553 447 266 228 510 827 952 1227
4 433 956 1108 1215 991 1124 1165 1799 961 775 1348 2506 2681 2539 2241 2411 1882 1593 1459 1350 1215 611 594 611 326 422 602 502 311 150 73 33 216 211 219 199 199 77 262 10 135 97 1 0 0 0 0 0 0 0 0 0 0 0 0 0 0 3 6 7 5 0 0 23 53 96 43 59 282 211 238 454 462 501 563 472 201 132 137 150 110 378 778 1086
0 4 121 580 1135 1440 1178 1076 1500 1506 1038 802 1803 2683 2405 2102 2485 1851 1610 1533 1374 1172 728 701 680 408 439 678 664 245 147 270 147 238 194 265 142 128 189 228 219 58 1 0 0 0 0 0 0 0 0 0 0 0 0 0 0 0 0 0 1 4 1 0 0 0 0 0 0 0 0 0 0 0 0 0 0 0 0 0 0 0 0 44 387
0 0 0 576 905 1035 2114 1742 1997 1720 1370 1174 1343 2612 2238 2114 2343 1927 1761 1655 1422 1198 856 738 736 515 484 647 677 317 223 301 235 244 200 226 214 126 406 159 188 132 48 0 0 0 0 0 0 0 0 0 0 0 0 0 0 0 2 2 3 4 4 2 0 0 0 0 0 0 0 0 0 0 0 0 0 0 0 0 0 0 0 0 0
0 3 241 209 245 556 1133 1536 1788 1663 1580 1665 1620 1855 2350 2088 2278 1873 1835 1734 1466 1235 925 840 781 566 588 614 755 547 321 460 245 398 234 405 215 230 255 264 115 22 30 0 0 0 0 0 0 0 0 0 0 0 0 0 0 0 0 0 0 0 0 0 0 0 0 0 0 0 0 0 0 0 0 0 0 0 0 0 0 0 0 0 0
85 313 454 626 788 318 673 1446 2095 2385 2277 1941 1948 2264 2321 2114 2236 1885 1718 1808 1486 1189 1002 915 846 696 748 633 800 589 505 684 420 437 368 462 319 396 318 376 204 170 55 18 0 0 0 0 0 0 0 0 0 0 0 0 0 0 0 0 0 0 0 0 0 0 0 0 0 0 0 0 0 0 0 0 0 0 0 0 0 0 0 0 0
603 677 676 896 1264 1380 1389 1129 2036 2193 1934 1877 1929 2150 2142 2078 2209 1858 1676 1874 1521 1174 1078 956 851 912 850 769 729 566 577 497 782 550 475 598 368 465 373 539 386 237 110 90 0 10 56 4 0 0 0 0 0 0 0 0 0 0 0 0 0 0 0 0 0 0 0 0 0 0 10 0 0 0 0 0 0 0 0 0 0 0 0 0 0
869 974 819 833 985 1229 1494 1689 1532 2094 1884 2152 1912 1943 2179 2045 2052 1705 1698 1925 1624 1103 1107 943 835 925 905 867 724 703 378 485 478 629 621 778 681 514 432 586 536 445 219 96 6 33 104 48 0 0 0 0 0 0 0 0 0 0 0 0 0 0 0 0 0 0 0 0 0 0 0 0 0 0 0 0 0 0 0 0 0 0 0 0 0
931 1098 1128 1017 874 1093 986 1166 1044 1350 1851 1878 1738 1718 1819 1878 1673 1683 1682 1867 1727 1190 1111 986 956 980 933 1103 839 873 537 542 403 805 676 589 970 662 437 424 808 608 436 205 28 79 174 63 4 4 0 0 0 0 0 0 0 0 0 0 0 0 0 0 0 0 0 0 0 0 0 0 0 0 0 0 0 0 0 0 0 0 0 0 0
639 891 1020 1044 890 824 848 911 870 995 1379 1488 1413 1467 1591 1612 1498 1600 1515 1480 1429 1412 1104 1051 1150 1115 1010 1094 1097 1120 1050 866 537 941 938 554 823 995 683 385 761 760 580 266 74 130 195 127 41 46 9 2 0 0 0 0 0 0 0 0 0 0 0 0 0 0 0 0 0 0 0 0 0 0 0 0 0 0 0 0 0 0 0 0 0
586 863 936 920 883 916 1053 968 681 900 1193 1223 1141 1372 1488 1420 1463 1324 1326 1162 1218 1500 1187 1134 1158 1196 1149 1106 1218 1290 1430 1366 1138 1050 1032 771 743 729 748 568 574 665 608 418 167 115 236 149 138 64 34 14 3 1 0 0 0 1 0 0 0 0 0 0 0 0 0 0 0 0 0 0 0 0 0 0 0 0 0 0 0 0 0 0 0
478 653 825 820 774 702 700 845 811 1028 1004 1170 1204 1248 1287 1276 1366 1314 1162 869 736 1002 1452 1209 1161 1203 1318 1243 1235 1202 1193 1275 1067 791 1136 1088 872 763 919 689 818 580 848 580 209 165 204 169 116 157 77 19 5 4 0 0 0 2 0 0 0 0 0 0 0 0 0 0 0 0 0 0 0 0 0 0 0 0 0 0 0 0 0 0 0
612 529 532 554 649 707 583 635 632 783 990 1182 1137 1170 1222 1219 1114 929 1146 957 581 406 857 1337 1318 1421 1515 1535 1518 1536 1401 1250 835 779 525 934 822 947 827 921 599 312 449 797 526 315 197 178 103 166 95 32 4 7 0 0 0 1 0 0 0 0 0 0 0 0 0 0 0 0 0 0 0 0 0 0 0 0 0 0 0 0 0 0 0
558 511 485 400 502 580 569 620 685 635 732 765 790 786 765 867 1046 1031 865 593 289 194 674 1216 1095 1265 1069 1237 1436 1300 1464 1225 1389 1241 780 730 458 798 961 703 1269 582 202 492 552 494 354 244 123 112 138 75 32 0 0 0 0 0 0 0 0 0 0 0 0 0 0 0 0 0 0 0 0 0 0 0 0 0 0 0 0 0 0 0 0
317 391 440 392 518 574 448 385 544 699 688 714 711 777 876 932 886 826 869 943 744 320 572 1136 1259 1044 738 696 1103 1473 1044 809 759 847 1224 839 586 538 845 1098 891 678 703 440 348 383 385 312 235 188 132 129 72 4 1 0 0 1 0 0 0 0 0 0 0 0 0 0 0 0 0 0 0 0 0 0 0 0 0 0 0 0 0 0 0
40 93 167 177 179 253 283 381 379 382 356 244 480 839 848 848 809 778 743 715 747 746 891 1078 1261 1264 928 972 1225 874 1176 743 661 682 799 483 438 516 681 924 950 850 671 665 713 505 290 233 273 254 181 187 128 52 21 0 0 0 0 0 0 0 0 0 0 0 0 0 0 0 0 0 0 0 0 0 0 0 0 0 0 0 0 0 0
2 2 3 9 6 6 8 30 66 92 93 135 102 138 325 643 616 702 717 730 738 752 716 647 880 1100 1160 1297 1230 1310 1299 1231 952 682 976 928 619 494 403 775 989 1002 823 720 876 743 684 401 339 304 201 202 185 109 47 19 1 0 0 0 0 0 0 0 0 0 0 0 0 0 0 0 0 0 0 0 0 0 0 0 0 0 0 0 0
0 0 2 2 0 0 0 0 0 0 0 0 10 3 0 0 10 30 180 595 647 629 657 906 1010 1064 1087 1196 1328 1240 1314 1350 1478 1472 1364 1058 923 790 621 606 699 648 602 1025 437 437 521 531 349 308 211 197 171 133 117 69 11 0 1 0 0 0 0 0 0 0 0 0 0 0 0 0 0 0 0 0 0 0 0 0 0 0 0 0 0
4 8 6 7 3 0 0 0 0 0 0 0 0 0 0 0 0 0 0 5 104 225 161 419 410 881 1012 1091 1057 914 1041 1061 1333 1424 1618 1035 714 483 488 580 626 376 268 523 40 281 252 411 436 299 299 114 74 69 178 160 141 93 0 0 0 0 0 0 0 0 0 0 0 0 0 0 0 0 0 0 0 0 0 0 0 0 0 0 0
15 14 4 2 1 2 0 0 0 0 0 0 0 0 0 0 0 0 0 0 1 16 12 25 18 11 12 15 417 597 847 991 1176 1262 1284 1378 1253 1048 819 865 821 468 358 589 478 374 365 349 478 456 67 170 137 134 124 133 131 180 209 168 0 0 0 0 0 0 0 0 0 0 0 0 0 0 0 0 0 0 0 0 0 0 0 0 0
17 13 16 11 7 6 3 0 0 0 0 0 0 0 0 0 0 0 0 0 0 0 0 0 15 3 2 14 20 9 8 12 280 1066 1461 1446 1366 1244 1194 1241 952 761 886 984 815 519 353 294 238 90 212 668 356 191 18 82 105 206 122 216 166 29 0 3 0 0 0 0 0 0 0 0 0 0 0 0 0 0 0 0 0 0 0 0 0
26 17 13 6 5 3 0 1 0 0 0 0 0 0 0 0 0 0 0 0 0 0 0 0 0 0 0 0 0 4 40 19 19 36 59 215 592 1179 1258 1344 1381 1172 918 779 628 519 366 371 433 432 425 303 494 317 39 15 54 95 63 215 188 60 3 58 22 0 0 140 146 48 44 0 0 0 0 0 0 0 0 0 0 0 0 0 0
9 3 2 0 0 0 0 0 0 0 0 0 0 0 0 0 0 0 0 0 0 0 0 0 0 0 0 0 0 0 0 0 5 14 20 22 15 165 715 1220 1237 906 724 622 677 643 648 579 423 325 385 404 361 411 239 19 48 50 128 182 192 40 78 44 16 7 127 172 174 164 133 0 0 0 0 0 0 0 0 0 0 0 0 0 0
0 12 3 2 7 0 0 0 0 0 0 0 0 0 0 0 0 0 0 0 0 0 0 0 0 0 0 0 0 0 0 0 0 0 2 8 48 63 57 98 265 744 986 973 1015 1006 881 878 713 721 606 496 467 429 351 186 79 138 130 221 184 53 55 13 33 104 117 97 3 9 5 0 0 0 0 0 0 0 0 0 0 0 0 0 0
1 2 0 4 1 2 0 0 0 0 0 0 0 0 0 0 0 0 0 0 0 0 0 0 0 0 0 0 0 0 0 0 0 0 1 1 0 4 16 104 154 294 502 626 694 789 808 911 943 850 887 763 618 510 410 284 224 244 216 184 171 0 73 44 42 36 6 0 0 1 3 0 0 0 0 0 0 0 0 0 0 0 0 0 0
8 1 0 0 1 0 1 0 0 0 0 0 0 0 0 0 0 0 0 0 0 0 0 0 0 0 0 0 0 0 0 0 1 2 0 1 1 2 25 51 95 179 296 466 629 645 722 735 806 780 785 696 579 511 404 368 371 305 255 198 57 0 14 20 16 0 0 0 0 1 2 2 0 0 0 0 0 0 0 0 0 0 0 0 0
36 3 105 0 0 0 0 0 0 0 0 0 0 0 0 0 0 0 0 0 0 0 0 0 0 0 0 0 0 0 0 0 0 0 1 1 6 17 25 31 31 73 141 228 294 350 503 540 587 753 652 404 405 450 454 431 383 330 251 116 0 3 4 3 2 0 0 0 2 3 2 2 1 0 0 0 0 0 0 0 0 0 0 0 0
11 11 5 0 0 0 0 0 0 0 0 0 0 0 0 0 0 0 0 0 0 0 0 0 0 0 0 0 0 0 0 0 0 0 0 0 4 15 21 28 38 80 82 77 114 246 381 520 623 620 623 450 341 352 367 358 363 315 224 0 2 12 9 4 4 3 1 1 4 6 6 6 4 0 0 0 0 0 0 0 0 0 0 0 0
9 38 0 0 0 0 3 5 0 0 0 0 0 0 0 0 0 0 0 0 0 0 0 0 0 0 0 0 0 0 0 0 0 0 0 0 1 23 32 20 14 63 124 141 113 168 198 260 371 472 396 295 306 324 347 350 315 271 0 0 12 26 17 8 2 2 2 0 0 4 1 9 10 3 0 0 0 0 0 0 0 0 0 0 0
0 0 0 0 0 0 0 0 0 0 0 0 0 0 0 0 0 0 0 0 0 0 0 0 0 0 0 0 0 0 0 0 0 0 0 0 0 0 0 0 1 5 41 105 133 136 168 200 252 262 288 266 310 332 320 284 257 30 0 0 14 53 36 8 2 2 3 3 4 2 4 3 2 0 0 0 0 0 0 0 0 0 0 0 0
0 1 4 0 0 0 0 0 0 0 0 0 0 0 0 0 0 0 0 0 0 0 0 0 0 0 0 0 0 0 0 0 0 0 0 0 0 0 0 3 10 13 15 66 70 24 148 14 0 0 121 117 214 263 287 272 216 195 161 100 81 62 35 20 9 7 0 3 2 3 0 2 5 0 0 0 0 0 0 0 0 0 0 0 0
0 0 1 3 2 0 0 1 0 0 0 0 0 0 0 0 0 0 0 0 0 0 0 0 0 0 0 0 0 0 4 2 1 5 28 27 25 5 4 4 12 6 13 40 57 28 24 0 0 0 0 0 0 72 205 180 164 140 108 68 41 37 13 7 2 2 0 1 8 10 4 1 0 0 0 0 0 0 0 0 0 0 0 0 0
0 0 1 0 0 0 0 0 0 0 0 0 0 0 0 0 0 0 0 0 0 0 0 0 0 0 0 0 0 0 5 10 9 22 28 18 12 21 50 60 83 75 100 140 208 0 0 0 0 0 0 0 0 0 0 22 64 66 48 34 22 21 13 6 6 4 5 8 8 5 0 0 0 2 3 1 0 0 0 0 0 0 0 0 0
4 2 0 0 0 0 0 0 0 0 2 2 1 0 0 0 0 0 0 0 0 0 0 0 0 0 0 0 0 0 1 19 27 38 67 53 35 42 54 100 85 108 174 251 0 0 0 0 0 0 0 0 0 0 0 0 3 9 20 23 10 4 5 6 6 4 5 7 10 7 0 1 2 3 2 0 0 0 0 0 0 0 0 0 0
0 0 0 0 0 0 1 2 1 2 2 5 1 1 0 0 0 0 0 0 0 0 0 0 0 0 0 0 0 0 0 1 4 18 32 46 67 70 84 110 164 207 330 126 0 0 0 0 0 0 0 0 0 4 5 10 13 9 6 4 16 5 9 12 9 6 5 7 5 7 1 0 1 0 0 0 0 0 0 0 0 0 0 0 0
4 1 0 0 0 0 2 0 0 0 0 1 7 5 3 1 0 0 0 0 0 0 0 0 0 0 0 0 0 0 0 0 0 4 15 38 55 72 74 92 95 192 124 65 0 0 0 0 0 0 0 2 1 5 17 13 11 10 3 19 30 25 15 12 10 10 8 3 8 8 6 3 0 0 0 0 0 0 0 0 0 0 0 0 0
1 2 4 2 1 1 0 0 0 2 2 1 0 0 0 6 8 6 0 0 0 0 0 0 0 0 0 0 0 0 0 0 3 10 8 17 37 76 37 50 106 99 95 33 0 0 0 0 0 0 0 2 10 12 12 9 8 0 5 8 13 15 21 17 11 11 11 12 13 14 13 5 7 7 3 1 0 0 0 0 0 0 0 0 0
0 0 0 0 0 0 3 0 1 2 2 1 2 6 5 5 4 2 1 0 0 0 0 0 0 0 0 0 0 0 0 0 10 5 9 5 18 36 12 48 78 26 26 8 0 0 0 0 0 0 0 3 9 6 1 4 5 4 2 6 14 22 24 23 19 16 13 6 9 9 12 13 12 8 2 0 0 0 0 0 0 0 0 0 0
1 2 11 4 2 1 1 2 5 4 4 3 2 4 2 1 0 0 0 0 0 0 0 1 0 0 0 0 0 0 0 0 1 1 0 9 33 42 47 52 26 24 24 7 0 0 0 0 0 5 6 6 2 5 6 5 4 4 5 10 11 15 21 22 18 12 13 10 15 16 15 7 5 3 0 0 0 0 0 0 0 0 0 2 2
5 4 8 1 1 0 2 1 3 3 6 16 5 2 0 1 2 3 4 2 2 4 6 2 0 0 0 0 0 0 0 0 2 3 11 48 68 49 48 37 19 22 21 6 0 0 0 0 2 6 3 8 6 6 4 3 3 6 9 6 4 5 7 11 9 13 7 3 1 2 5 6 2 0 0 0 0 0 0 0 0 0 0 2 3
3 8 5 6 3 1 0 0 0 1 11 16 11 10 4 9 11 4 2 2 3 2 8 10 2 0 0 0 1 2 4 7 8 0 0 0 2 32 7 4 9 4 4 0 0 0 0 0 0 1 1 4 6 4 1 2 4 6 5 5 6 6 4 5 6 1 0 0 2 3 0 0 0 0 0 0 0 0 0 0 0 2 4 6 6
15 20 4 12 22 8 11 12 21 10 13 6 13 8 9 1 3 6 12 15 14 12 16 14 7 1 0 1 10 12 17 12 54 0 0 0 0 0 0 3 0 0 0 1 0 1 0 6 6 4 2 3 2 0 0 1 2 4 4 3 3 1 0 0 0 0 0 0 0 0 0 0 0 0 0 0 0 0 1 3 4 7 9 8 8
40 36 5 9 3 2 2 5 2 1 0 0 0 0 1 6 8 2 4 12 13 4 2 2 2 8 6 15 29 58 186 67 8 0 0 0 0 0 0 0 0 0 0 0 2 2 1 6 3 3 3 3 3 3 5 7 9 10 10 4 1 0 0 0 0 0 0 0 0 0 0 0 0 0 0 1 3 5 6 6 6 9 11 10 12
Wind_Speed
28 32 32 29 29 29 28 26 30 28 24 24 24 26 28 28 28 29 28 27 25 25 23 24 24 24 23 26 28 24 27 28 29 28 28 28 27 29 29 29 29 30 28 29 27 27 29 32 29 26 25 22 21 21 22 21 20 21 24 24 24 25 24 23 25 26 21 21 21 18 17 18 nan 16 19 23 27 30 31 36 40 42 43 42 41
31 32 29 31 30 27 26 25 28 27 20 20 20 25 26 29 29 30 28 25 26 24 23 23 23 26 21 24 25 26 nan 27 29 30 29 27 27 27 27 26 27 29 29 29 29 26 28 29 31 26 26 25 24 24 23 22 21 22 22 24 24 24 23 24 25 24 22 22 22 20 20 20 20 17 15 15 25 27 31 32 36 39 41 42 42
32 31 29 32 32 33 28 28 25 21 19 17 19 23 26 28 29 30 28 26 25 25 24 24 23 23 21 22 23 28 27 26 29 28 nan nan 27 nan 27 25 26 29 nan nan 29 30 28 29 31 28 26 25 25 25 24 23 23 22 24 26 25 23 22 20 22 23 24 23 22 23 21 21 22 22 20 17 18 21 27 32 34 33 35 38 40
32 31 31 34 33 31 28 24 24 19 20 17 19 23 25 26 29 30 29 27 27 25 26 26 26 25 24 24 25 27 27 26 27 26 nan nan nan 27 27 26 28 28 28 nan nan nan 29 28 31 29 26 24 25 25 25 26 24 26 27 26 26 26 21 22 22 23 23 27 25 22 23 22 22 24 21 20 18 16 19 25 32 34 35 37 39
31 30 30 33 32 27 25 21 20 21 20 16 18 22 23 28 31 31 30 30 28 27 29 28 27 26 25 25 25 27 25 26 nan 26 nan nan 28 27 26 27 27 28 nan nan nan nan 30 nan 27 30 26 23 24 26 25 25 27 27 27 27 28 27 24 23 22 21 22 24 26 26 24 22 22 22 20 20 19 19 19 22 24 26 31 35 35
35 30 29 32 30 23 23 21 20 21 18 16 16 21 24 29 32 33 32 33 31 30 30 28 28 28 26 25 24 25 26 25 27 nan 25 26 nan 25 nan nan 27 27 nan nan nan nan nan nan nan 27 nan 27 nan 24 26 28 28 28 27 27 26 26 26 25 25 24 25 24 23 23 23 23 24 23 22 19 18 19 18 19 20 20 23 27 33
34 31 28 27 26 25 23 21 22 20 15 15 16 20 26 30 34 35 34 35 34 32 31 29 29 29 27 25 24 25 26 25 26 26 nan nan 26 26 25 24 nan 26 nan nan nan nan nan nan nan nan nan nan nan 25 27 nan nan 30 28 29 30 30 25 26 26 26 25 24 24 24 25 25 23 24 24 22 21 20 17 17 16 16 17 19 23
32 35 31 28 23 21 24 23 24 21 13 16 17 20 27 31 35 37 35 38 36 34 31 29 31 31 29 27 26 26 26 27 25 26 26 25 24 24 nan 24 25 25 25 nan nan nan nan nan nan nan nan nan nan nan nan nan nan nan nan 28 28 28 28 29 28 26 26 24 23 24 26 26 23 23 23 23 24 23 21 18 16 15 14 11 10
35 34 36 30 26 22 20 21 22 22 17 19 20 21 27 32 36 37 38 40 39 37 33 32 33 33 31 29 27 28 28 26 nan nan 24 23 22 22 24 nan 26 25 nan nan nan nan nan nan nan nan nan nan nan nan nan nan nan nan nan nan nan nan 27 27 nan 25 26 28 25 23 24 25 25 25 27 26 25 26 23 23 20 19 17 13 13
nan 35 35 34 31 26 23 23 25 26 22 19 18 23 27 32 36 38 40 41 41 39 35 34 36 35 33 30 27 28 25 nan nan 24 24 20 22 23 nan 25 nan 24 nan nan nan nan nan nan nan nan nan nan nan nan nan nan nan nan nan nan nan nan nan nan nan nan nan nan nan 25 25 26 28 29 29 28 26 27 25 22 22 23 24 23 24
nan nan 33 35 33 32 31 28 26 27 26 22 15 26 29 33 37 38 42 42 43 42 38 36 37 36 33 29 27 26 23 22 23 22 21 20 21 21 22 24 25 nan nan nan nan nan nan nan nan nan nan nan nan nan nan nan nan nan nan nan nan nan nan nan nan nan nan nan nan nan nan nan nan nan nan nan nan nan nan nan nan nan nan nan 26
nan nan nan 36 31 29 34 31 31 30 27 27 21 27 31 34 38 40 43 44 44 44 40 38 38 36 31 27 25 24 20 19 22 21 21 20 20 19 22 23 24 25 nan nan nan nan nan nan nan nan nan nan nan nan nan nan nan nan nan nan nan nan nan nan nan nan nan nan nan nan nan nan nan nan nan nan nan nan nan nan nan nan nan nan nan
nan nan 38 34 30 31 32 33 33 33 30 29 32 28 32 35 40 42 44 46 45 45 42 40 37 34 29 25 23 22 19 18 20 20 21 21 21 19 21 21 23 nan nan nan nan nan nan nan nan nan nan nan nan nan nan nan nan nan nan nan nan nan nan nan nan nan nan nan nan nan nan nan nan nan nan nan nan nan nan nan nan nan nan nan nan
nan 36 34 32 33 32 32 33 36 35 35 33 36 34 35 36 39 42 45 47 46 46 44 40 36 31 26 23 21 21 19 18 20 19 20 21 20 20 20 21 22 21 nan nan nan nan nan nan nan nan nan nan nan nan nan nan nan nan nan nan nan nan nan nan nan nan nan nan nan nan nan nan nan nan nan nan nan nan nan nan nan nan nan nan nan
35 35 34 35 34 34 35 34 35 39 37 34 35 38 35 37 39 42 45 47 47 47 44 39 34 28 24 22 20 20 18 18 20 20 20 20 21 21 19 22 22 22 22 nan nan nan nan nan nan nan nan nan nan nan nan nan nan nan nan nan nan nan nan nan nan nan nan nan nan nan nan nan nan nan nan nan nan nan nan nan nan nan nan nan nan
35 35 35 35 34 33 33 33 33 40 36 36 36 38 37 36 37 38 42 43 44 45 40 35 30 26 24 23 21 20 19 19 18 22 21 19 22 23 20 21 22 22 22 nan nan nan 21 nan nan nan nan nan nan nan nan nan nan nan nan nan nan nan nan nan nan nan nan nan nan nan nan nan nan nan nan nan nan nan nan nan nan nan nan nan nan
35 35 35 34 34 33 33 31 31 34 36 35 34 34 34 33 33 33 37 38 40 38 33 30 28 25 24 23 21 21 21 20 20 22 24 21 21 24 22 22 23 24 24 23 nan nan 21 nan nan nan nan nan nan nan nan nan nan nan nan nan nan nan nan nan nan nan nan nan nan nan nan nan nan nan nan nan nan nan nan nan nan nan nan nan nan
36 36 37 37 36 35 35 33 34 31 32 32 32 32 30 28 29 25 31 31 33 31 28 28 27 25 25 23 22 21 22 22 22 22 25 23 21 24 23 23 22 24 25 24 nan 21 21 20 nan nan nan nan nan nan nan nan nan nan nan nan nan nan nan nan nan nan nan nan nan nan nan nan nan nan nan nan nan nan nan nan nan nan nan nan nan
35 36 35 35 34 35 33 33 34 32 31 30 31 31 28 26 24 23 27 26 28 28 28 28 26 25 25 24 23 23 22 23 23 23 25 25 23 22 22 23 23 23 26 26 23 22 21 20 19 nan nan nan nan nan nan nan nan nan nan nan nan nan nan nan nan nan nan nan nan nan nan nan nan nan nan nan nan nan nan nan nan nan nan nan nan
34 35 35 36 35 35 34 33 35 33 31 31 32 29 29 24 23 22 26 29 24 28 31 29 27 27 27 26 25 24 24 25 25 23 26 26 25 22 22 23 22 22 23 25 23 22 21 19 17 19 nan nan nan nan nan nan nan nan nan nan nan nan nan nan nan nan nan nan nan nan nan nan nan nan nan nan nan nan nan nan nan nan nan nan nan
34 35 35 35 35 35 35 33 36 35 34 33 33 32 29 27 25 27 30 35 36 33 26 30 30 30 30 29 29 28 27 28 27 26 28 25 25 24 22 21 21 22 22 23 21 19 19 18 17 16 nan nan nan nan nan nan nan nan nan nan nan nan nan nan nan nan nan nan nan nan nan nan nan nan nan nan nan nan nan nan nan nan nan nan nan
35 36 36 36 36 36 35 36 37 36 36 39 40 39 36 31 31 33 34 38 35 34 28 33 33 34 33 33 34 31 32 32 30 29 30 32 26 23 20 22 20 19 21 22 22 18 16 17 16 15 16 nan nan nan nan nan nan nan nan nan nan nan nan nan nan nan nan nan nan nan nan nan nan nan nan nan nan nan nan nan nan nan nan nan nan
37 37 37 37 37 38 38 37 38 37 36 37 38 39 37 40 41 40 41 43 41 37 36 38 39 39 37 35 35 34 35 35 32 30 32 34 30 25 22 21 21 20 21 22 21 21 18 17 15 15 16 17 nan nan nan nan nan nan nan nan nan nan nan nan nan nan nan nan nan nan nan nan nan nan nan nan nan nan nan nan nan nan nan nan nan
nan nan 37 38 39 39 40 39 39 38 37 36 36 37 38 39 41 42 44 44 44 43 44 43 43 41 38 35 36 34 34 36 35 35 36 35 32 28 23 23 22 23 22 22 23 23 22 19 17 16 16 17 18 nan nan nan nan nan nan nan nan nan nan nan nan nan nan nan nan nan nan nan nan nan nan nan nan nan nan nan nan nan nan nan nan
nan nan nan nan nan nan nan nan nan nan nan 39 40 40 40 41 41 42 40 40 40 39 40 43 47 47 44 40 36 33 34 35 38 40 39 38 36 34 28 26 26 25 25 26 25 23 22 21 20 18 17 17 19 20 nan nan nan nan nan nan nan nan nan nan nan nan nan nan nan nan nan nan nan nan nan nan nan nan nan nan nan nan nan nan nan
nan nan nan nan nan nan nan nan nan nan nan nan nan nan nan nan nan nan 42 40 39 39 40 42 43 43 43 42 39 35 34 33 36 38 39 40 40 39 38 33 30 32 33 27 23 21 23 22 21 20 20 20 20 21 22 nan nan nan nan nan nan nan nan nan nan nan nan nan nan nan nan nan nan nan nan nan nan nan nan nan nan nan nan nan nan
nan nan nan nan nan nan nan nan nan nan nan nan nan nan nan nan nan nan nan nan 40 39 40 40 42 44 42 41 39 37 37 35 36 37 37 36 36 36 34 33 34 38 34 28 nan 25 25 24 22 22 22 23 nan nan 24 24 24 nan nan nan nan nan nan nan nan nan nan nan nan nan nan nan nan nan nan nan nan nan nan nan nan nan nan nan nan
nan nan nan nan nan nan nan nan nan nan nan nan nan nan nan nan nan nan nan nan nan nan nan nan nan nan nan nan 43 41 41 41 41 40 41 40 38 37 36 36 37 37 35 33 29 26 26 27 27 26 nan 31 26 23 24 24 25 24 25 24 nan nan nan nan nan nan nan nan nan nan nan nan nan nan nan nan nan nan nan nan nan nan nan nan nan
nan nan nan nan nan nan nan nan nan nan nan nan nan nan nan nan nan nan nan nan nan nan nan nan nan nan nan nan nan nan nan nan 44 43 43 45 43 41 41 40 39 38 37 35 34 33 33 29 29 nan 22 30 32 31 nan nan 25 24 28 27 29 nan nan nan nan nan nan nan nan nan nan nan nan nan nan nan nan nan nan nan nan nan nan nan nan
nan nan nan nan nan nan nan nan nan nan nan nan nan nan nan nan nan nan nan nan nan nan nan nan nan nan nan nan nan nan nan nan nan nan nan 46 46 46 44 43 43 42 41 39 38 35 34 35 34 29 28 28 29 35 nan nan nan nan nan 31 33 nan nan nan nan nan nan 38 37 nan nan nan nan nan nan nan nan nan nan nan nan nan nan nan nan
nan nan nan nan nan nan nan nan nan nan nan nan nan nan nan nan nan nan nan nan nan nan nan nan nan nan nan nan nan nan nan nan nan nan nan nan nan 47 48 46 45 45 45 45 44 41 39 42 47 42 33 32 33 34 34 nan nan nan 32 34 38 nan nan nan nan nan 41 41 41 41 44 nan nan nan nan nan nan nan nan nan nan nan nan nan nan
nan nan nan nan nan nan nan nan nan nan nan nan nan nan nan nan nan nan nan nan nan nan nan nan nan nan nan nan nan nan nan nan nan nan nan nan nan nan nan nan 47 47 48 49 50 48 46 49 51 51 47 44 44 43 40 39 nan 39 44 42 42 nan nan nan nan 42 43 nan nan nan nan nan nan nan nan nan nan nan nan nan nan nan nan nan nan
nan nan nan nan nan nan nan nan nan nan nan nan nan nan nan nan nan nan nan nan nan nan nan nan nan nan nan nan nan nan nan nan nan nan nan nan nan nan nan 46 46 47 48 49 49 50 49 49 50 50 49 50 48 51 48 44 46 51 53 49 45 nan nan nan nan nan nan nan nan nan nan nan nan nan nan nan nan nan nan nan nan nan nan nan nan
nan nan nan nan nan nan nan nan nan nan nan nan nan nan nan nan nan nan nan nan nan nan nan nan nan nan nan nan nan nan nan nan nan nan nan nan nan nan nan nan nan 49 49 48 48 49 49 49 49 48 50 51 51 52 51 51 55 56 56 55 nan nan nan nan nan nan nan nan nan nan nan nan nan nan nan nan nan nan nan nan nan nan nan nan nan
nan nan 47 nan nan nan nan nan nan nan nan nan nan nan nan nan nan nan nan nan nan nan nan nan nan nan nan nan nan nan nan nan nan nan nan nan nan nan nan nan nan nan 51 50 50 49 50 50 50 51 51 54 55 53 53 57 58 60 61 61 nan nan nan nan nan nan nan nan nan nan nan nan nan nan nan nan nan nan nan nan nan nan nan nan nan
nan nan nan nan nan nan nan nan nan nan nan nan nan nan nan nan nan nan nan nan nan nan nan nan nan nan nan nan nan nan nan nan nan nan nan nan nan nan nan nan nan nan nan nan 53 53 51 52 53 54 55 61 58 57 58 59 61 62 65 nan nan nan nan nan nan nan nan nan nan nan nan nan nan nan nan nan nan nan nan nan nan nan nan nan nan
nan nan nan nan nan nan nan nan nan nan nan nan nan nan nan nan nan nan nan nan nan nan nan nan nan nan nan nan nan nan nan nan nan nan nan nan nan nan nan nan nan nan 53 54 55 56 55 53 54 55 60 63 61 57 58 61 61 62 nan nan nan nan nan nan nan nan nan nan nan nan nan nan nan nan nan nan nan nan nan nan nan nan nan nan nan
nan nan nan nan nan nan nan nan nan nan nan nan nan nan nan nan nan nan nan nan nan nan nan nan nan nan nan nan nan nan nan nan nan nan nan nan nan nan nan nan nan nan nan 54 56 55 55 53 54 56 63 62 59 59 60 63 64 nan nan nan nan nan nan nan nan nan nan nan nan nan nan nan nan nan nan nan nan nan nan nan nan nan nan nan nan
nan nan nan nan nan nan nan nan nan nan nan nan nan nan nan nan nan nan nan nan nan nan nan nan nan nan nan nan nan nan nan nan nan nan nan nan nan nan nan nan nan nan nan nan nan nan 53 nan nan nan 63 62 60 59 61 64 65 62 58 nan nan nan nan nan nan nan nan nan nan nan nan nan nan nan nan nan nan nan nan nan nan nan nan nan nan
nan nan nan nan nan nan nan nan nan nan nan nan nan nan nan nan nan nan nan nan nan nan nan nan nan nan nan nan nan nan nan nan nan nan nan nan nan nan nan nan nan nan nan nan nan nan nan nan nan nan nan nan nan nan 59 65 64 63 59 nan nan nan nan nan nan nan nan nan nan nan nan nan nan nan nan nan nan nan nan nan nan nan nan nan nan
nan nan nan nan nan nan nan nan nan nan nan nan nan nan nan nan nan nan nan nan nan nan nan nan nan nan nan nan nan nan nan nan nan nan nan nan nan nan nan nan nan nan 51 54 58 nan nan nan nan nan nan nan nan nan nan nan nan nan nan nan nan nan nan nan nan nan nan nan nan nan nan nan nan nan nan nan nan nan nan nan nan nan nan nan nan
nan nan nan nan nan nan nan nan nan nan nan nan nan nan nan nan nan nan nan nan nan nan nan nan nan nan nan nan nan nan nan nan nan nan nan nan nan nan nan nan nan 51 56 60 nan nan nan nan nan nan nan nan nan nan nan nan nan nan nan nan nan nan nan nan nan nan nan nan nan nan nan nan nan nan nan nan nan nan nan nan nan nan nan nan nan
nan nan nan nan nan nan nan nan nan nan nan nan nan nan nan nan nan nan nan nan nan nan nan nan nan nan nan nan nan nan nan nan nan nan nan nan nan nan nan 49 48 54 60 58 nan nan nan nan nan nan nan nan nan nan nan nan nan nan nan nan nan nan nan nan nan nan nan nan nan nan nan nan nan nan nan nan nan nan nan nan nan nan nan nan nan
nan nan nan nan nan nan nan nan nan nan nan nan nan nan nan nan nan nan nan nan nan nan nan nan nan nan nan nan nan nan nan nan nan nan nan nan nan nan nan nan nan 52 54 nan nan nan nan nan nan nan nan nan nan nan nan nan nan nan nan nan nan nan nan nan nan nan nan nan nan nan nan nan nan nan nan nan nan nan nan nan nan nan nan nan nan
nan nan nan nan nan nan nan nan nan nan nan nan nan nan nan nan nan nan nan nan nan nan nan nan nan nan nan nan nan nan nan nan nan nan nan nan nan nan nan nan 52 nan nan nan nan nan nan nan nan nan nan nan nan nan nan nan nan nan nan nan nan nan nan nan nan nan nan nan nan nan nan nan nan nan nan nan nan nan nan nan nan nan nan nan nan
nan nan nan nan nan nan nan nan nan nan nan nan nan nan nan nan nan nan nan nan nan nan nan nan nan nan nan nan nan nan nan nan nan nan nan nan nan nan nan nan nan nan nan nan nan nan nan nan nan nan nan nan nan nan nan nan nan nan nan nan nan nan nan nan nan nan nan nan nan nan nan nan nan nan nan nan nan nan nan nan nan nan nan nan nan
nan nan nan nan nan nan nan nan nan nan nan nan nan nan nan nan nan nan nan nan nan nan nan nan nan nan nan nan nan nan nan nan nan nan nan nan nan nan nan nan nan nan nan nan nan nan nan nan nan nan nan nan nan nan nan nan nan nan nan nan nan nan nan nan nan nan nan nan nan nan nan nan nan nan nan nan nan nan nan nan nan nan nan nan nan
nan nan nan nan nan nan nan nan nan nan nan nan nan nan nan nan nan nan nan nan nan nan nan nan nan nan nan nan nan nan nan nan nan nan nan nan nan nan nan nan nan nan nan nan nan nan nan nan nan nan nan nan nan nan nan nan nan nan nan nan nan nan nan nan nan nan nan nan nan nan nan nan nan nan nan nan nan nan nan nan nan nan nan nan nan
nan nan nan nan nan nan nan nan nan nan nan nan nan nan nan nan nan nan nan nan nan nan nan nan nan nan nan nan nan nan nan nan nan nan nan nan nan nan nan nan nan nan nan nan nan nan nan nan nan nan nan nan nan nan nan nan nan nan nan nan nan nan nan nan nan nan nan nan nan nan nan nan nan nan nan nan nan nan nan nan nan nan nan nan nan
nan nan nan nan nan nan nan nan nan nan nan nan nan nan nan nan nan nan nan nan nan nan nan nan nan nan nan nan nan nan nan nan nan nan nan nan nan nan nan nan nan nan nan nan nan nan nan nan nan nan nan nan nan nan nan nan nan nan nan nan nan nan nan nan nan nan nan nan nan nan nan nan nan nan nan nan nan nan nan nan nan nan nan nan nan
nan nan nan nan nan nan nan nan nan nan nan nan nan nan nan nan nan nan nan nan nan nan nan nan nan nan nan nan nan nan 55 nan nan nan nan nan nan nan nan nan nan nan nan nan nan nan nan nan nan nan nan nan nan nan nan nan nan nan nan nan nan nan nan nan nan nan nan nan nan nan nan nan nan nan nan nan nan nan nan nan nan nan nan nan nan
Wind_Direction
293 294 295 295 284 284 285 284 276 273 274 281 288 289 292 294 294 292 290 291 292 292 292 291 289 287 286 287 285 283 281 283 276 270 271 269 258 259 261 258 258 258 257 263 268 275 280 284 289 292 289 287 285 284 283 282 279 276 277 274 270 269 267 267 269 272 270 261 261 264 271 273 nan 242 239 240 243 236 229 226 227 229 230 229 228
296 286 287 288 287 279 271 275 277 278 278 287 292 295 295 295 294 291 292 294 294 294 291 288 288 291 294 291 290 286 nan 286 281 280 277 272 271 267 266 266 266 263 262 264 268 267 274 280 286 286 286 284 282 280 280 282 281 279 276 271 267 267 270 271 269 268 266 266 264 266 264 265 276 277 263 251 252 246 238 230 228 230 232 233 232
291 289 286 288 287 281 282 276 265 269 285 294 296 298 297 295 293 293 295 295 295 293 292 289 285 282 286 285 285 280 272 274 278 278 nan nan 280 nan 272 269 270 275 nan nan 270 270 272 275 278 280 280 280 281 280 281 278 276 277 274 272 266 260 262 269 275 272 266 271 270 265 266 269 266 268 267 267 265 258 248 240 236 234 236 238 239
289 289 290 287 287 285 285 284 282 277 289 298 301 302 297 296 294 295 297 295 295 297 295 294 293 290 284 281 279 279 280 279 278 278 nan nan nan 275 276 272 268 264 262 nan nan nan 268 266 275 274 276 277 276 277 275 272 270 269 271 274 272 262 260 263 261 264 264 272 270 267 266 266 269 268 268 267 268 266 258 248 242 238 236 236 240
281 283 285 287 287 291 289 283 274 274 288 299 302 301 295 298 297 297 298 296 298 298 298 298 298 294 288 288 289 288 288 286 nan 283 nan nan 279 278 275 272 270 270 nan nan nan nan 264 nan 267 277 274 273 274 275 274 275 274 270 271 276 278 280 279 267 264 267 263 263 264 267 266 268 268 270 267 269 271 267 260 255 253 247 245 243 241
288 292 297 291 289 288 287 287 278 282 286 292 296 296 296 297 298 298 298 297 300 300 301 302 302 300 299 299 299 296 294 293 288 nan 286 279 nan 277 nan nan 270 266 nan nan nan nan nan nan nan 266 nan 260 nan 260 268 272 271 277 273 270 271 270 271 270 267 261 262 262 262 260 261 266 273 267 265 262 264 264 258 258 260 258 253 248 248
286 286 292 289 287 292 293 294 283 267 278 288 294 294 297 296 297 299 298 297 300 301 304 305 302 301 302 304 306 303 298 288 285 280 nan nan 274 277 279 275 nan 271 nan nan nan nan nan nan nan nan nan nan nan 263 260 nan nan 265 271 272 271 272 270 267 268 269 263 259 254 253 259 263 263 266 264 261 257 257 258 261 266 270 260 249 245
286 291 287 285 293 287 291 299 279 265 272 291 294 292 296 295 297 297 297 298 300 301 306 306 303 304 306 309 309 303 294 290 286 280 278 277 279 279 nan 278 275 275 273 nan nan nan nan nan nan nan nan nan nan nan nan nan nan nan nan 270 273 272 271 268 265 263 259 257 259 260 262 264 262 260 265 262 263 261 263 267 277 284 276 267 262
297 292 293 296 294 289 289 286 287 290 288 294 295 292 290 292 295 296 297 297 299 302 305 306 304 305 307 307 307 297 293 290 nan nan 281 280 280 278 273 nan 269 267 nan nan nan nan nan nan nan nan nan nan nan nan nan nan nan nan nan nan nan nan 264 269 nan 268 266 265 260 257 264 265 263 265 270 266 265 266 269 275 274 274 277 286 298
nan 285 295 298 298 307 309 309 298 300 288 253 283 292 291 291 295 296 296 296 298 301 304 306 304 306 307 306 303 296 294 nan nan 285 283 284 278 275 nan 277 nan 276 nan nan nan nan nan nan nan nan nan nan nan nan nan nan nan nan nan nan nan nan nan nan nan nan nan nan nan 262 258 259 264 261 261 263 263 271 271 269 275 273 274 283 293
nan nan 291 289 294 308 309 308 302 293 284 275 276 297 294 293 294 295 294 294 297 299 302 305 304 305 305 303 298 296 295 293 290 288 285 283 282 280 278 278 276 nan nan nan nan nan nan nan nan nan nan nan nan nan nan nan nan nan nan nan nan nan nan nan nan nan nan nan nan nan nan nan nan nan nan nan nan nan nan nan nan nan nan nan 281
nan nan nan 266 280 286 288 293 289 287 283 279 279 293 294 292 292 292 292 293 295 297 300 302 302 302 299 297 294 295 294 291 292 291 288 284 282 281 277 277 275 275 nan nan nan nan nan nan nan nan nan nan nan nan nan nan nan nan nan nan nan nan nan nan nan nan nan nan nan nan nan nan nan nan nan nan nan nan nan nan nan nan nan nan nan
nan nan 264 268 266 268 273 279 282 282 281 283 281 282 286 287 291 291 291 291 293 295 297 300 299 298 294 292 289 292 293 294 294 290 289 284 283 281 279 280 278 nan nan nan nan nan nan nan nan nan nan nan nan nan nan nan nan nan nan nan nan nan nan nan nan nan nan nan nan nan nan nan nan nan nan nan nan nan nan nan nan nan nan nan nan
nan 259 264 262 261 263 269 271 280 278 282 282 280 281 279 279 284 287 288 289 290 292 295 298 296 292 288 287 284 287 292 295 293 290 288 284 286 283 282 281 280 279 nan nan nan nan nan nan nan nan nan nan nan nan nan nan nan nan nan nan nan nan nan nan nan nan nan nan nan nan nan nan nan nan nan nan nan nan nan nan nan nan nan nan nan
264 265 261 259 258 259 260 265 271 275 273 275 273 273 272 275 280 282 284 286 288 289 291 294 290 287 286 285 283 285 290 291 291 288 286 284 287 282 283 282 282 281 281 nan nan nan nan nan nan nan nan nan nan nan nan nan nan nan nan nan nan nan nan nan nan nan nan nan nan nan nan nan nan nan nan nan nan nan nan nan nan nan nan nan nan
266 266 265 262 259 258 259 257 261 271 273 268 269 270 268 270 275 279 280 281 282 285 288 289 284 283 284 285 288 289 292 291 287 286 284 283 283 282 282 281 283 282 281 nan nan nan 281 nan nan nan nan nan nan nan nan nan nan nan nan nan nan nan nan nan nan nan nan nan nan nan nan nan nan nan nan nan nan nan nan nan nan nan nan nan nan
264 262 261 263 263 261 261 265 261 261 266 266 265 267 270 269 271 275 278 276 277 280 281 279 279 281 283 283 288 289 293 292 289 284 285 281 276 280 280 278 279 282 282 282 nan nan 282 nan nan nan nan nan nan nan nan nan nan nan nan nan nan nan nan nan nan nan nan nan nan nan nan nan nan nan nan nan nan nan nan nan nan nan nan nan nan
269 265 261 259 262 264 264 257 257 257 262 263 263 262 263 264 271 274 273 273 275 275 273 273 276 278 279 281 284 285 288 289 285 279 280 279 274 276 277 278 277 282 284 285 nan 284 282 284 nan nan nan nan nan nan nan nan nan nan nan nan nan nan nan nan nan nan nan nan nan nan nan nan nan nan nan nan nan nan nan nan nan nan nan nan nan
271 270 268 266 264 263 263 263 262 259 256 258 259 259 257 255 258 265 270 269 273 268 266 267 269 268 271 275 276 277 277 277 276 272 274 275 274 272 274 278 279 283 288 289 291 289 287 286 284 nan nan nan nan nan nan nan nan nan nan nan nan nan nan nan nan nan nan nan nan nan nan nan nan nan nan nan nan nan nan nan nan nan nan nan nan
272 272 270 266 262 261 261 261 262 258 256 252 253 252 257 250 250 259 267 272 261 264 263 264 265 264 268 269 270 273 272 269 266 261 260 263 265 264 267 271 275 279 283 290 293 295 295 292 289 288 nan nan nan nan nan nan nan nan nan nan nan nan nan nan nan nan nan nan nan nan nan nan nan nan nan nan nan nan nan nan nan nan nan nan nan
274 274 272 270 267 264 261 260 257 249 249 253 251 249 249 249 253 258 254 257 255 253 249 260 260 260 263 265 267 266 267 267 267 262 262 258 256 253 252 261 272 276 276 282 287 291 297 296 296 294 nan nan nan nan nan nan nan nan nan nan nan nan nan nan nan nan nan nan nan nan nan nan nan nan nan nan nan nan nan nan nan nan nan nan nan
274 273 272 272 273 271 267 261 255 251 246 246 241 241 240 242 254 252 257 262 266 262 266 262 258 257 257 261 262 261 260 258 258 260 260 255 246 252 256 255 256 271 283 282 285 278 279 289 293 292 290 nan nan nan nan nan nan nan nan nan nan nan nan nan nan nan nan nan nan nan nan nan nan nan nan nan nan nan nan nan nan nan nan nan nan
273 270 267 267 268 270 270 268 265 260 252 245 245 246 246 242 241 246 250 252 258 264 260 256 258 257 259 259 260 261 263 264 263 264 263 261 258 247 242 255 257 255 264 274 281 284 277 274 279 278 282 285 nan nan nan nan nan nan nan nan nan nan nan nan nan nan nan nan nan nan nan nan nan nan nan nan nan nan nan nan nan nan nan nan nan
nan nan 269 270 270 269 269 269 268 267 265 261 256 255 252 251 253 253 252 251 253 252 255 256 261 263 265 268 267 268 269 272 271 268 269 272 272 272 265 260 258 262 263 259 259 266 277 278 274 276 280 282 285 nan nan nan nan nan nan nan nan nan nan nan nan nan nan nan nan nan nan nan nan nan nan nan nan nan nan nan nan nan nan nan nan
nan nan nan nan nan nan nan nan nan nan nan 261 260 259 258 258 261 262 262 259 253 252 258 265 265 260 258 263 265 266 271 272 271 269 267 272 277 276 274 265 260 265 266 260 258 259 262 267 271 275 279 280 282 283 nan nan nan nan nan nan nan nan nan nan nan nan nan nan nan nan nan nan nan nan nan nan nan nan nan nan nan nan nan nan nan
nan nan nan nan nan nan nan nan nan nan nan nan nan nan nan nan nan nan 267 266 263 260 256 260 266 266 262 257 259 263 269 271 270 268 270 271 273 275 276 272 272 268 260 264 274 265 261 259 259 267 271 271 272 274 276 nan nan nan nan nan nan nan nan nan nan nan nan nan nan nan nan nan nan nan nan nan nan nan nan nan nan nan nan nan nan
nan nan nan nan nan nan nan nan nan nan nan nan nan nan nan nan nan nan nan nan 265 265 262 258 258 262 262 263 264 264 263 263 264 266 270 272 269 269 274 277 273 273 279 280 nan 267 262 258 254 255 263 261 nan nan 266 268 274 nan nan nan nan nan nan nan nan nan nan nan nan nan nan nan nan nan nan nan nan nan nan nan nan nan nan nan nan
nan nan nan nan nan nan nan nan nan nan nan nan nan nan nan nan nan nan nan nan nan nan nan nan nan nan nan nan 264 266 267 266 267 266 268 270 270 272 277 279 275 275 277 280 280 278 272 267 262 258 nan 255 258 257 251 251 261 263 269 273 nan nan nan nan nan nan nan nan nan nan nan nan nan nan nan nan nan nan nan nan nan nan nan nan nan
nan nan nan nan nan nan nan nan nan nan nan nan nan nan nan nan nan nan nan nan nan nan nan nan nan nan nan nan nan nan nan nan 271 272 272 274 273 272 273 275 278 278 275 275 269 263 264 264 257 nan 255 253 255 257 nan nan 246 253 262 269 270 nan nan nan nan nan nan nan nan nan nan nan nan nan nan nan nan nan nan nan nan nan nan nan nan
nan nan nan nan nan nan nan nan nan nan nan nan nan nan nan nan nan nan nan nan nan nan nan nan nan nan nan nan nan nan nan nan nan nan nan 266 271 276 275 274 277 278 277 275 273 269 263 261 264 268 263 254 255 258 nan nan nan nan nan 264 265 nan nan nan nan nan nan 272 273 nan nan nan nan nan nan nan nan nan nan nan nan nan nan nan nan
nan nan nan nan nan nan nan nan nan nan nan nan nan nan nan nan nan nan nan nan nan nan nan nan nan nan nan nan nan nan nan nan nan nan nan nan nan 267 270 275 275 275 275 275 275 276 272 269 273 279 281 275 269 268 273 nan nan nan 281 271 268 nan nan nan nan nan 271 273 274 276 277 nan nan nan nan nan nan nan nan nan nan nan nan nan nan
nan nan nan nan nan nan nan nan nan nan nan nan nan nan nan nan nan nan nan nan nan nan nan nan nan nan nan nan nan nan nan nan nan nan nan nan nan nan nan nan 265 268 271 272 274 275 273 273 276 280 280 277 275 276 280 275 nan 288 282 275 271 nan nan nan nan 271 272 nan nan nan nan nan nan nan nan nan nan nan nan nan nan nan nan nan nan
nan nan nan nan nan nan nan nan nan nan nan nan nan nan nan nan nan nan nan nan nan nan nan nan nan nan nan nan nan nan nan nan nan nan nan nan nan nan nan 267 266 265 265 267 268 270 272 272 274 276 277 276 274 278 281 282 283 281 281 277 273 nan nan nan nan nan nan nan nan nan nan nan nan nan nan nan nan nan nan nan nan nan nan nan nan
nan nan nan nan nan nan nan nan nan nan nan nan nan nan nan nan nan nan nan nan nan nan nan nan nan nan nan nan nan nan nan nan nan nan nan nan nan nan nan nan nan 268 268 267 269 270 271 273 274 274 275 275 275 281 285 286 285 285 282 276 nan nan nan nan nan nan nan nan nan nan nan nan nan nan nan nan nan nan nan nan nan nan nan nan nan
nan nan 261 nan nan nan nan nan nan nan nan nan nan nan nan nan nan nan nan nan nan nan nan nan nan nan nan nan nan nan nan nan nan nan nan nan nan nan nan nan nan nan 267 270 272 271 271 273 273 274 275 275 278 284 284 284 285 283 281 274 nan nan nan nan nan nan nan nan nan nan nan nan nan nan nan nan nan nan nan nan nan nan nan nan nan
nan nan nan nan nan nan nan nan nan nan nan nan nan nan nan nan nan nan nan nan nan nan nan nan nan nan nan nan nan nan nan nan nan nan nan nan nan nan nan nan nan nan nan nan 266 269 271 272 274 274 273 273 278 282 282 281 280 279 276 nan nan nan nan nan nan nan nan nan nan nan nan nan nan nan nan nan nan nan nan nan nan nan nan nan nan
nan nan nan nan nan nan nan nan nan nan nan nan nan nan nan nan nan nan nan nan nan nan nan nan nan nan nan nan nan nan nan nan nan nan nan nan nan nan nan nan nan nan 259 261 264 266 268 269 270 272 272 274 275 277 280 281 279 279 nan nan nan nan nan nan nan nan nan nan nan nan nan nan nan nan nan nan nan nan nan nan nan nan nan nan nan
nan nan nan nan nan nan nan nan nan nan nan nan nan nan nan nan nan nan nan nan nan nan nan nan nan nan nan nan nan nan nan nan nan nan nan nan nan nan nan nan nan nan nan 262 263 265 267 269 268 268 272 273 274 274 277 276 276 nan nan nan nan nan nan nan nan nan nan nan nan nan nan nan nan nan nan nan nan nan nan nan nan nan nan nan nan
nan nan nan nan nan nan nan nan nan nan nan nan nan nan nan nan nan nan nan nan nan nan nan nan nan nan nan nan nan nan nan nan nan nan nan nan nan nan nan nan nan nan nan nan nan nan 265 nan nan nan 271 271 271 272 276 276 271 269 270 nan nan nan nan nan nan nan nan nan nan nan nan nan nan nan nan nan nan nan nan nan nan nan nan nan nan
nan nan nan nan nan nan nan nan nan nan nan nan nan nan nan nan nan nan nan nan nan nan nan nan nan nan nan nan nan nan nan nan nan nan nan nan nan nan nan nan nan nan nan nan nan nan nan nan nan nan nan nan nan nan 274 273 271 268 267 nan nan nan nan nan nan nan nan nan nan nan nan nan nan nan nan nan nan nan nan nan nan nan nan nan nan
nan nan nan nan nan nan nan nan nan nan nan nan nan nan nan nan nan nan nan nan nan nan nan nan nan nan nan nan nan nan nan nan nan nan nan nan nan nan nan nan nan nan 265 263 261 nan nan nan nan nan nan nan nan nan nan nan nan nan nan nan nan nan nan nan nan nan nan nan nan nan nan nan nan nan nan nan nan nan nan nan nan nan nan nan nan
nan nan nan nan nan nan nan nan nan nan nan nan nan nan nan nan nan nan nan nan nan nan nan nan nan nan nan nan nan nan nan nan nan nan nan nan nan nan nan nan nan 267 266 266 nan nan nan nan nan nan nan nan nan nan nan nan nan nan nan nan nan nan nan nan nan nan nan nan nan nan nan nan nan nan nan nan nan nan nan nan nan nan nan nan nan
nan nan nan nan nan nan nan nan nan nan nan nan nan nan nan nan nan nan nan nan nan nan nan nan nan nan nan nan nan nan nan nan nan nan nan nan nan nan nan 267 268 269 269 268 nan nan nan nan nan nan nan nan nan nan nan nan nan nan nan nan nan nan nan nan nan nan nan nan nan nan nan nan nan nan nan nan nan nan nan nan nan nan nan nan nan
nan nan nan nan nan nan nan nan nan nan nan nan nan nan nan nan nan nan nan nan nan nan nan nan nan nan nan nan nan nan nan nan nan nan nan nan nan nan nan nan nan 268 271 nan nan nan nan nan nan nan nan nan nan nan nan nan nan nan nan nan nan nan nan nan nan nan nan nan nan nan nan nan nan nan nan nan nan nan nan nan nan nan nan nan nan
nan nan nan nan nan nan nan nan nan nan nan nan nan nan nan nan nan nan nan nan nan nan nan nan nan nan nan nan nan nan nan nan nan nan nan nan nan nan nan nan 267 nan nan nan nan nan nan nan nan nan nan nan nan nan nan nan nan nan nan nan nan nan nan nan nan nan nan nan nan nan nan nan nan nan nan nan nan nan nan nan nan nan nan nan nan
nan nan nan nan nan nan nan nan nan nan nan nan nan nan nan nan nan nan nan nan nan nan nan nan nan nan nan nan nan nan nan nan nan nan nan nan nan nan nan nan nan nan nan nan nan nan nan nan nan nan nan nan nan nan nan nan nan nan nan nan nan nan nan nan nan nan nan nan nan nan nan nan nan nan nan nan nan nan nan nan nan nan nan nan nan
nan nan nan nan nan nan nan nan nan nan nan nan nan nan nan nan nan nan nan nan nan nan nan nan nan nan nan nan nan nan nan nan nan nan nan nan nan nan nan nan nan nan nan nan nan nan nan nan nan nan nan nan nan nan nan nan nan nan nan nan nan nan nan nan nan nan nan nan nan nan nan nan nan nan nan nan nan nan nan nan nan nan nan nan nan
nan nan nan nan nan nan nan nan nan nan nan nan nan nan nan nan nan nan nan nan nan nan nan nan nan nan nan nan nan nan nan nan nan nan nan nan nan nan nan nan nan nan nan nan nan nan nan nan nan nan nan nan nan nan nan nan nan nan nan nan nan nan nan nan nan nan nan nan nan nan nan nan nan nan nan nan nan nan nan nan nan nan nan nan nan
nan nan nan nan nan nan nan nan nan nan nan nan nan nan nan nan nan nan nan nan nan nan nan nan nan nan nan nan nan nan nan nan nan nan nan nan nan nan nan nan nan nan nan nan nan nan nan nan nan nan nan nan nan nan nan nan nan nan nan nan nan nan nan nan nan nan nan nan nan nan nan nan nan nan nan nan nan nan nan nan nan nan nan nan nan
nan nan nan nan nan nan nan nan nan nan nan nan nan nan nan nan nan nan nan nan nan nan nan nan nan nan nan nan nan nan nan nan nan nan nan nan nan nan nan nan nan nan nan nan nan nan nan nan nan nan nan nan nan nan nan nan nan nan nan nan nan nan nan nan nan nan nan nan nan nan nan nan nan nan nan nan nan nan nan nan nan nan nan nan nan
nan nan nan nan nan nan nan nan nan nan nan nan nan nan nan nan nan nan nan nan nan nan nan nan nan nan nan nan nan nan 266 nan nan nan nan nan nan nan nan nan nan nan nan nan nan nan nan nan nan nan nan nan nan nan nan nan nan nan nan nan nan nan nan nan nan nan nan nan nan nan nan nan nan nan nan nan nan nan nan nan nan nan nan nan nan